User: anonymous   Login
Location: Unspecified
(0.0000°N, 0.0000°E)
Time: 19:02:19
(UTC+01:00)
Language:

Cosmos 1515 Rocket - Orbit

View from above orbital plane
View from above orbital plane
View from above satellite
View from above satellite

Ground track
Ground track

The orbit data is extracted from the following two-line orbital elements,

1 14552U 83122B   16340.21678769  .00000109  00000-0  10330-4 0  9994
2 14552  82.5257 258.2012 0018802  79.7326 280.6008 14.83372759780425
Epoch (UTC): 05 December 2016 05:12:10
Eccentricity: 0.0018802
inclination: 82.5257°
perigee height: 605 km
apogee height: 632 km
right ascension of ascending node: 258.2012°
argument of perigee: 79.7326°
revolutions per day: 14.83372759
mean anomaly at epoch: 280.6008°
orbit number at epoch: 78042

The dashed part of the orbit path shows where the satellite is in the earth's shadow,  

DLR